This is the latest recevied weather packets stored in our database for station/object HG8LXL-2. If no packets are shown the sender has not sent any weather packets the latest 10 day(s).
| Time | Temp. | Humidity | Pressure | Rain* | Wind** | Luminosity | Snow |
|---|---|---|---|---|---|---|---|
| 1777516799 | 10° C | 26% | 1022.8 hPa | - | - | - | - |
| 1777516499 | 10.56° C | 25% | 1022.7 hPa | - | - | - | - |
| 1777516199 | 10° C | 26% | 1022.7 hPa | - | - | - | - |
| 1777515899 | 10.56° C | 25% | 1022.5 hPa | - | - | - | - |
| 1777515599 | 10.56° C | 25% | 1022.7 hPa | - | - | - | - |
| 1777515299 | 10.56° C | 25% | 1022.6 hPa | - | - | - | - |
| 1777514999 | 10.56° C | 25% | 1022.6 hPa | - | - | - | - |
| 1777514699 | 11.11° C | 25% | 1022.6 hPa | - | - | - | - |
| 1777514399 | 10.56° C | 24% | 1022.6 hPa | - | - | - | - |
| 1777514099 | 10° C | 25% | 1022.5 hPa | - | - | - | - |
| 1777513799 | 10.56° C | 24% | 1022.6 hPa | - | - | - | - |
| 1777513499 | 10.56° C | 24% | 1022.5 hPa | - | - | - | - |
| 1777513199 | 10.56° C | 24% | 1022.5 hPa | - | - | - | - |
| 1777512899 | 10.56° C | 24% | 1022.3 hPa | - | - | - | - |
| 1777512599 | 11.11° C | 22% | 1022.4 hPa | - | - | - | - |
| 1777512299 | 11.11° C | 22% | 1022.2 hPa | - | - | - | - |
| 1777511999 | 11.11° C | 22% | 1022.2 hPa | - | - | - | - |
| 1777511699 | 11.67° C | 21% | 1022.2 hPa | - | - | - | - |
| 1777511399 | 11.67° C | 21% | 1022.2 hPa | - | - | - | - |
| 1777511099 | 11.67° C | 21% | 1022.1 hPa | - | - | - | - |
| 1777510799 | 11.67° C | 21% | 1022.1 hPa | - | - | - | - |
| 1777510499 | 11.67° C | 20% | 1021.9 hPa | - | - | - | - |
| 1777510199 | 12.22° C | 20% | 1021.9 hPa | - | - | - | - |
| 1777509899 | 12.22° C | 20% | 1021.9 hPa | - | - | - | - |
| 1777509599 | 12.78° C | 19% | 1021.8 hPa | - | - | - | - |
* Rain since midnight (hover to see other rain measurements)
** Current wind speed in m/s (hover to see current wind gust speed)